Time,TemperatureF,DewpointF,PressureIn,WindDirection,WindDirectionDegrees,WindSpeedMPH,WindSpeedGustMPH,Humidity,HourlyPrecipIn,Conditions,Clouds,dailyrainin,SolarRadiationWatts/m^2,SoftwareType,DateUTC
2013-01-12 00:22:00,2.0,-5.0,-100.00,NW,312,10.0,26.0,73,0.00,,,0.00,0.000000,,2013-01-12 07:22:00,
2013-01-12 00:32:00,2.0,-5.0,-100.00,NW,312,10.0,26.0,73,0.00,,,0.00,0.000000,,2013-01-12 07:32:00,
2013-01-12 00:42:00,2.0,-5.0,-100.00,NW,312,10.0,26.0,73,0.00,,,0.00,0.000000,,2013-01-12 07:42:00,
2013-01-12 00:52:00,2.0,-5.0,-100.00,NW,312,10.0,26.0,73,0.00,,,0.00,0.000000,,2013-01-12 07:52:00,
2013-01-12 01:22:00,1.0,-6.0,-100.00,NW,304,11.0,29.0,73,0.00,,,0.00,0.000000,,2013-01-12 08:22:00,
2013-01-12 01:32:00,1.0,-6.0,-100.00,NW,304,11.0,29.0,73,0.00,,,0.00,0.000000,,2013-01-12 08:32:00,
2013-01-12 01:42:00,1.0,-6.0,-100.00,NW,304,11.0,29.0,73,0.00,,,0.00,0.000000,,2013-01-12 08:42:00,
2013-01-12 01:52:00,1.0,-6.0,-100.00,NW,304,11.0,29.0,73,0.00,,,0.00,0.000000,,2013-01-12 08:52:00,
2013-01-12 02:22:00,1.0,-5.0,-100.00,NW,307,9.0,23.0,74,0.00,,,0.00,0.000000,,2013-01-12 09:22:00,
2013-01-12 02:32:00,1.0,-5.0,-100.00,NW,307,9.0,23.0,74,0.00,,,0.00,0.000000,,2013-01-12 09:32:00,
2013-01-12 02:42:00,1.0,-5.0,-100.00,NW,307,9.0,23.0,74,0.00,,,0.00,0.000000,,2013-01-12 09:42:00,
2013-01-12 02:52:00,1.0,-5.0,-100.00,NW,307,9.0,23.0,74,0.00,,,0.00,0.000000,,2013-01-12 09:52:00,
2013-01-12 03:22:00,1.0,-6.0,-100.00,WNW,301,10.0,24.0,71,0.00,,,0.00,0.000000,,2013-01-12 10:22:00,
2013-01-12 03:32:00,1.0,-6.0,-100.00,WNW,301,10.0,24.0,71,0.00,,,0.00,0.000000,,2013-01-12 10:32:00,
2013-01-12 03:42:00,1.0,-6.0,-100.00,WNW,301,10.0,24.0,71,0.00,,,0.00,0.000000,,2013-01-12 10:42:00,
2013-01-12 03:52:00,1.0,-6.0,-100.00,WNW,301,10.0,24.0,71,0.00,,,0.00,0.000000,,2013-01-12 10:52:00,
2013-01-12 04:22:00,1.0,-6.0,-100.00,NW,307,9.0,19.0,71,0.00,,,0.00,0.000000,,2013-01-12 11:22:00,
2013-01-12 04:32:00,1.0,-6.0,-100.00,NW,307,9.0,19.0,71,0.00,,,0.00,0.000000,,2013-01-12 11:32:00,
2013-01-12 04:42:00,1.0,-6.0,-100.00,NW,307,9.0,19.0,71,0.00,,,0.00,0.000000,,2013-01-12 11:42:00,
2013-01-12 04:52:00,1.0,-6.0,-100.00,NW,307,9.0,19.0,71,0.00,,,0.00,0.000000,,2013-01-12 11:52:00,
2013-01-12 05:22:00,1.0,-6.0,-100.00,NW,305,8.0,23.0,71,0.00,,,0.00,0.000000,,2013-01-12 12:22:00,
2013-01-12 05:32:00,1.0,-6.0,-100.00,NW,305,8.0,23.0,71,0.00,,,0.00,0.000000,,2013-01-12 12:32:00,
2013-01-12 05:42:00,1.0,-6.0,-100.00,NW,305,8.0,23.0,71,0.00,,,0.00,0.000000,,2013-01-12 12:42:00,
2013-01-12 05:52:00,1.0,-6.0,-100.00,NW,305,8.0,23.0,71,0.00,,,0.00,0.000000,,2013-01-12 12:52:00,
2013-01-12 06:22:00,1.0,-6.0,-100.00,NW,308,7.0,23.0,70,0.00,,,0.00,0.000000,,2013-01-12 13:22:00,
2013-01-12 06:33:00,1.0,-6.0,-100.00,NW,308,7.0,23.0,70,0.00,,,0.00,0.000000,,2013-01-12 13:33:00,
2013-01-12 06:42:00,1.0,-6.0,-100.00,NW,308,7.0,23.0,70,0.00,,,0.00,0.000000,,2013-01-12 13:42:00,
2013-01-12 06:53:00,1.0,-6.0,-100.00,NW,308,7.0,23.0,70,0.00,,,0.00,0.000000,,2013-01-12 13:53:00,
2013-01-12 07:22:00,1.0,-6.0,-100.00,NW,306,5.0,15.0,71,0.00,,,0.00,0.000000,,2013-01-12 14:22:00,
2013-01-12 07:33:00,1.0,-6.0,-100.00,NW,306,5.0,15.0,71,0.00,,,0.00,0.000000,,2013-01-12 14:33:00,
2013-01-12 07:43:00,1.0,-6.0,-100.00,NW,306,5.0,15.0,71,0.00,,,0.00,0.000000,,2013-01-12 14:43:00,
2013-01-12 07:53:00,1.0,-6.0,-100.00,NW,306,5.0,15.0,71,0.00,,,0.00,0.000000,,2013-01-12 14:53:00,
2013-01-12 08:22:00,2.0,-5.0,-100.00,NW,318,5.0,14.0,72,0.00,,,0.00,7.000000,,2013-01-12 15:22:00,
2013-01-12 08:33:00,2.0,-5.0,-100.00,NW,318,5.0,14.0,72,0.00,,,0.00,7.000000,,2013-01-12 15:33:00,
2013-01-12 08:43:00,2.0,-5.0,-100.00,NW,318,5.0,14.0,72,0.00,,,0.00,7.000000,,2013-01-12 15:43:00,
2013-01-12 08:53:00,2.0,-5.0,-100.00,NW,318,5.0,14.0,72,0.00,,,0.00,7.000000,,2013-01-12 15:53:00,
2013-01-12 09:23:00,3.0,-4.0,-100.00,NW,316,4.0,11.0,71,0.00,,,0.00,55.000000,,2013-01-12 16:23:00,
2013-01-12 09:33:00,3.0,-4.0,-100.00,NW,316,4.0,11.0,71,0.00,,,0.00,55.000000,,2013-01-12 16:33:00,
2013-01-12 09:42:00,3.0,-4.0,-100.00,NW,316,4.0,11.0,71,0.00,,,0.00,55.000000,,2013-01-12 16:42:00,
2013-01-12 09:52:00,3.0,-4.0,-100.00,NW,316,4.0,11.0,71,0.00,,,0.00,55.000000,,2013-01-12 16:52:00,
2013-01-12 10:22:00,5.0,-2.0,-100.00,NW,313,4.0,10.0,71,0.00,,,-99.99,127.000000,,2013-01-12 17:22:00,
2013-01-12 10:33:00,5.0,-2.0,-100.00,NW,313,4.0,10.0,71,0.00,,,-99.99,127.000000,,2013-01-12 17:33:00,
2013-01-12 10:43:00,5.0,-2.0,-100.00,NW,313,4.0,10.0,71,0.00,,,-99.99,127.000000,,2013-01-12 17:43:00,
2013-01-12 10:53:00,5.0,-2.0,-100.00,NW,313,4.0,10.0,71,0.00,,,-99.99,127.000000,,2013-01-12 17:53:00,
2013-01-12 11:23:00,7.0,-1.0,-100.00,WNW,292,3.0,8.0,70,0.00,,,0.00,179.000000,,2013-01-12 18:23:00,
2013-01-12 11:33:00,7.0,-1.0,-100.00,WNW,292,3.0,8.0,70,0.00,,,0.00,179.000000,,2013-01-12 18:33:00,
2013-01-12 11:42:00,7.0,-1.0,-100.00,WNW,292,3.0,8.0,70,0.00,,,0.00,179.000000,,2013-01-12 18:42:00,
2013-01-12 11:52:00,7.0,-1.0,-100.00,WNW,292,3.0,8.0,70,0.00,,,0.00,179.000000,,2013-01-12 18:52:00,
2013-01-12 12:23:00,8.0,0.0,-100.00,NW,315,4.0,9.0,68,0.00,,,0.00,238.000000,,2013-01-12 19:23:00,
2013-01-12 12:33:00,8.0,0.0,-100.00,NW,315,4.0,9.0,68,0.00,,,0.00,238.000000,,2013-01-12 19:33:00,
2013-01-12 12:43:00,8.0,0.0,-100.00,NW,315,4.0,9.0,68,0.00,,,0.00,238.000000,,2013-01-12 19:43:00,
2013-01-12 12:52:00,8.0,0.0,-100.00,NW,315,4.0,9.0,68,0.00,,,0.00,238.000000,,2013-01-12 19:52:00,
2013-01-12 13:22:00,9.0,0.0,-100.00,NW,321,5.0,10.0,67,0.00,,,0.00,259.000000,,2013-01-12 20:22:00,
2013-01-12 13:33:00,9.0,0.0,-100.00,NW,321,5.0,10.0,67,0.00,,,0.00,259.000000,,2013-01-12 20:33:00,
2013-01-12 13:42:00,9.0,0.0,-100.00,NW,321,5.0,10.0,67,0.00,,,0.00,259.000000,,2013-01-12 20:42:00,
2013-01-12 13:53:00,9.0,0.0,-100.00,NW,321,5.0,10.0,67,0.00,,,0.00,259.000000,,2013-01-12 20:53:00,
2013-01-12 14:22:00,9.0,1.0,-100.00,NW,313,4.0,12.0,69,0.00,,,0.00,259.000000,,2013-01-12 21:22:00,
2013-01-12 14:33:00,9.0,1.0,-100.00,NW,313,4.0,12.0,69,0.00,,,0.00,259.000000,,2013-01-12 21:33:00,
2013-01-12 14:43:00,9.0,1.0,-100.00,NW,313,4.0,12.0,69,0.00,,,0.00,259.000000,,2013-01-12 21:43:00,
2013-01-12 14:52:00,9.0,1.0,-100.00,NW,313,4.0,12.0,69,0.00,,,0.00,259.000000,,2013-01-12 21:52:00,
2013-01-12 15:23:00,9.0,1.0,-100.00,NW,312,4.0,8.0,70,0.00,,,0.00,172.000000,,2013-01-12 22:23:00,
2013-01-12 15:33:00,9.0,1.0,-100.00,NW,312,4.0,8.0,70,0.00,,,0.00,172.000000,,2013-01-12 22:33:00,
2013-01-12 15:43:00,9.0,1.0,-100.00,NW,312,4.0,8.0,70,0.00,,,0.00,172.000000,,2013-01-12 22:43:00,
2013-01-12 15:52:00,9.0,1.0,-100.00,NW,312,4.0,8.0,70,0.00,,,0.00,172.000000,,2013-01-12 22:52:00,
2013-01-12 17:23:00,5.0,-1.0,-100.00,WNW,293,2.0,6.0,77,-99.99,,,0.00,18.000000,,2013-01-13 00:23:00,
2013-01-12 17:33:00,5.0,-1.0,-100.00,WNW,293,2.0,6.0,77,-99.99,,,0.00,18.000000,,2013-01-13 00:33:00,
2013-01-12 17:43:00,5.0,-1.0,-100.00,WNW,293,2.0,6.0,77,-99.99,,,0.00,18.000000,,2013-01-13 00:43:00,
2013-01-12 17:52:00,5.0,-1.0,-100.00,WNW,293,2.0,6.0,77,-99.99,,,0.00,18.000000,,2013-01-13 00:52:00,
2013-01-12 18:22:00,5.0,0.0,-100.00,WNW,294,3.0,7.0,78,0.00,,,0.00,0.000000,,2013-01-13 01:22:00,
2013-01-12 18:33:00,5.0,0.0,-100.00,WNW,294,3.0,7.0,78,0.00,,,0.00,0.000000,,2013-01-13 01:33:00,
2013-01-12 18:43:00,5.0,0.0,-100.00,WNW,294,3.0,7.0,78,0.00,,,0.00,0.000000,,2013-01-13 01:43:00,
2013-01-12 18:52:00,5.0,0.0,-100.00,WNW,294,3.0,7.0,78,0.00,,,0.00,0.000000,,2013-01-13 01:52:00,
2013-01-12 19:22:00,4.0,-1.0,-100.00,NW,310,1.0,5.0,79,0.00,,,0.00,0.000000,,2013-01-13 02:22:00,
2013-01-12 19:32:00,4.0,-1.0,-100.00,NW,310,1.0,5.0,79,0.00,,,0.00,0.000000,,2013-01-13 02:32:00,
2013-01-12 19:43:00,4.0,-1.0,-100.00,NW,310,1.0,5.0,79,0.00,,,0.00,0.000000,,2013-01-13 02:43:00,
2013-01-12 19:52:00,4.0,-1.0,-100.00,NW,310,1.0,5.0,79,0.00,,,0.00,0.000000,,2013-01-13 02:52:00,
2013-01-12 20:22:00,5.0,0.0,-100.00,NNW,328,2.0,3.0,79,0.00,,,0.00,0.000000,,2013-01-13 03:22:00,
2013-01-12 20:33:00,5.0,0.0,-100.00,NNW,328,2.0,3.0,79,0.00,,,0.00,0.000000,,2013-01-13 03:33:00,
2013-01-12 20:43:00,5.0,0.0,-100.00,NNW,328,2.0,3.0,79,0.00,,,0.00,0.000000,,2013-01-13 03:43:00,
2013-01-12 20:52:00,5.0,0.0,-100.00,NNW,328,2.0,3.0,79,0.00,,,0.00,0.000000,,2013-01-13 03:52:00,
2013-01-12 21:22:00,5.0,0.0,-100.00,NNW,333,1.0,4.0,79,0.00,,,0.00,0.000000,,2013-01-13 04:22:00,
2013-01-12 21:33:00,5.0,0.0,-100.00,NNW,333,1.0,4.0,79,0.00,,,0.00,0.000000,,2013-01-13 04:33:00,
2013-01-12 21:42:00,5.0,0.0,-100.00,NNW,333,1.0,4.0,79,0.00,,,0.00,0.000000,,2013-01-13 04:42:00,
2013-01-12 21:52:00,5.0,0.0,-100.00,NNW,333,1.0,4.0,79,0.00,,,0.00,0.000000,,2013-01-13 04:52:00,
2013-01-12 22:22:00,4.0,-2.0,-100.00,North,356,1.0,5.0,76,0.00,,,0.00,0.000000,,2013-01-13 05:22:00,
2013-01-12 22:32:00,4.0,-2.0,-100.00,North,356,1.0,5.0,76,0.00,,,0.00,0.000000,,2013-01-13 05:32:00,
2013-01-12 22:42:00,4.0,-2.0,-100.00,North,356,1.0,5.0,76,0.00,,,0.00,0.000000,,2013-01-13 05:42:00,
2013-01-12 22:52:00,4.0,-2.0,-100.00,North,356,1.0,5.0,76,0.00,,,0.00,0.000000,,2013-01-13 05:52:00,
2013-01-12 23:22:00,4.0,-2.0,-100.00,NW,317,0.0,2.0,76,0.00,,,0.00,0.000000,,2013-01-13 06:22:00,
2013-01-12 23:32:00,4.0,-2.0,-100.00,NW,317,0.0,2.0,76,0.00,,,0.00,0.000000,,2013-01-13 06:32:00,
2013-01-12 23:42:00,4.0,-2.0,-100.00,NW,317,0.0,2.0,76,0.00,,,0.00,0.000000,,2013-01-13 06:42:00,
2013-01-12 23:52:00,4.0,-2.0,-100.00,NW,317,0.0,2.0,76,0.00,,,0.00,0.000000,,2013-01-13 06:52:00,